Zurück zum Katalog

STARLINK-36565

AktivKommunikationSSO
NORAD 67544·PAYLOAD·🇺🇸 United States

Gestartet Jan 22, 2026 von Vandenberg Space Force Base

Loading…

Nächste Überflüge (nächste 24 Stunden)

TLE

AktuellSource: CelesTrak SupGP

Epoche: Sep 15, 2026, 04:02 UTC

1 67544C 26014N   26258.16854167  .00041574  00000+0  12894-2 0  2584
2 67544  97.2844 143.5890 0001882  88.6228 134.3547 15.33446506    10

Verfolge STARLINK-36565 in Echtzeit mit AllMySat

Download on the App Store